Time,TemperatureF,DewpointF,PressureIn,WindDirection,WindDirectionDegrees,WindSpeedMPH,WindSpeedGustMPH,Humidity,HourlyPrecipIn,Conditions,Clouds,dailyrainin,SoftwareType,DateUTC
2013-06-13 00:00:00,55.0,53.9,29.43,West,270,0.0,2.0,96,0.00,,,0.00,Weather View 32 v70,2013-06-13 04:00:00,
2013-06-13 00:01:00,55.0,53.9,29.43,West,270,0.0,2.0,96,0.00,,,0.00,Weather View 32 v70,2013-06-13 04:01:00,
2013-06-13 00:06:00,55.0,53.9,29.43,West,270,0.0,0.0,96,0.00,,,0.00,Weather View 32 v70,2013-06-13 04:06:00,
2013-06-13 00:11:00,54.0,53.2,29.43,West,270,0.0,0.0,97,0.00,,,0.00,Weather View 32 v70,2013-06-13 04:11:00,
2013-06-13 00:16:00,54.0,53.2,29.42,West,270,0.0,0.0,97,0.00,,,0.00,Weather View 32 v70,2013-06-13 04:16:00,
2013-06-13 00:21:00,54.0,53.2,29.42,West,270,0.0,0.0,97,0.00,,,0.00,Weather View 32 v70,2013-06-13 04:21:00,
2013-06-13 00:26:00,54.0,53.2,29.43,West,270,0.0,2.0,97,0.00,,,0.00,Weather View 32 v70,2013-06-13 04:26:00,
2013-06-13 00:31:00,54.0,53.2,29.43,West,270,0.0,2.0,97,0.00,,,0.00,Weather View 32 v70,2013-06-13 04:31:00,
2013-06-13 00:36:00,55.0,53.9,29.42,West,270,2.0,3.0,96,0.00,,,0.00,Weather View 32 v70,2013-06-13 04:36:00,
2013-06-13 00:41:00,55.0,53.9,29.42,West,270,2.0,3.0,96,0.00,,,0.00,Weather View 32 v70,2013-06-13 04:41:00,
2013-06-13 00:46:00,55.0,53.6,29.42,West,270,1.0,3.0,95,0.00,,,0.00,Weather View 32 v70,2013-06-13 04:46:00,
2013-06-13 00:51:00,55.0,53.9,29.42,West,270,2.0,3.0,96,0.00,,,0.00,Weather View 32 v70,2013-06-13 04:51:00,
2013-06-13 00:56:00,55.0,53.9,29.42,West,270,2.0,4.0,96,0.00,,,0.00,Weather View 32 v70,2013-06-13 04:56:00,
2013-06-13 01:01:00,55.0,54.2,29.42,West,270,3.0,4.0,97,0.00,,,0.00,Weather View 32 v70,2013-06-13 05:01:00,
2013-06-13 01:06:00,55.0,54.2,29.42,West,270,2.0,4.0,97,0.00,,,0.00,Weather View 32 v70,2013-06-13 05:06:00,
2013-06-13 01:11:00,55.0,54.2,29.42,West,270,2.0,4.0,97,0.00,,,0.00,Weather View 32 v70,2013-06-13 05:11:00,
2013-06-13 01:16:00,54.0,53.2,29.42,West,270,1.0,4.0,97,0.00,,,0.00,Weather View 32 v70,2013-06-13 05:16:00,
2013-06-13 01:21:00,54.0,53.2,29.42,West,270,3.0,4.0,97,0.00,,,0.00,Weather View 32 v70,2013-06-13 05:21:00,
2013-06-13 01:26:00,54.0,53.2,29.43,West,270,3.0,4.0,97,0.00,,,0.00,Weather View 32 v70,2013-06-13 05:26:00,
2013-06-13 01:31:00,54.0,53.2,29.43,West,270,3.0,5.0,97,0.00,,,0.00,Weather View 32 v70,2013-06-13 05:31:00,
2013-06-13 01:36:00,54.0,53.2,29.43,WNW,292,3.0,6.0,97,0.00,,,0.00,Weather View 32 v70,2013-06-13 05:36:00,
2013-06-13 01:41:00,54.0,53.2,29.43,NW,315,5.0,6.0,97,0.00,,,0.00,Weather View 32 v70,2013-06-13 05:41:00,
2013-06-13 01:46:00,54.0,53.2,29.42,NW,315,2.0,6.0,97,0.00,,,0.00,Weather View 32 v70,2013-06-13 05:46:00,
2013-06-13 01:51:00,54.0,53.2,29.42,NW,315,1.0,6.0,97,0.00,,,0.00,Weather View 32 v70,2013-06-13 05:51:00,
2013-06-13 01:56:00,54.0,53.2,29.42,NW,315,2.0,6.0,97,0.00,,,0.00,Weather View 32 v70,2013-06-13 05:56:00,
2013-06-13 02:01:00,54.0,53.2,29.42,NW,315,2.0,6.0,97,0.00,,,0.00,Weather View 32 v70,2013-06-13 06:01:00,
2013-06-13 02:06:00,54.0,53.2,29.42,NW,315,1.0,6.0,97,0.00,,,0.00,Weather View 32 v70,2013-06-13 06:06:00,
2013-06-13 02:11:00,53.0,52.2,29.42,NW,315,1.0,6.0,97,0.00,,,0.00,Weather View 32 v70,2013-06-13 06:11:00,
2013-06-13 02:16:00,53.0,52.2,29.41,NW,315,2.0,6.0,97,0.00,,,0.00,Weather View 32 v70,2013-06-13 06:16:00,
2013-06-13 02:21:00,53.0,52.2,29.41,NW,315,0.0,6.0,97,0.00,,,0.00,Weather View 32 v70,2013-06-13 06:21:00,
2013-06-13 02:26:00,53.0,52.2,29.41,NW,315,2.0,6.0,97,0.00,,,0.00,Weather View 32 v70,2013-06-13 06:26:00,
2013-06-13 02:31:00,53.0,52.2,29.41,NW,315,3.0,6.0,97,0.00,,,0.00,Weather View 32 v70,2013-06-13 06:31:00,
2013-06-13 02:36:00,53.0,52.2,29.42,NW,315,3.0,5.0,97,0.00,,,0.00,Weather View 32 v70,2013-06-13 06:36:00,
2013-06-13 02:41:00,53.0,52.2,29.42,NW,315,4.0,5.0,97,0.00,,,0.00,Weather View 32 v70,2013-06-13 06:41:00,
2013-06-13 02:46:00,53.0,52.2,29.42,NW,315,3.0,4.0,97,0.00,,,0.00,Weather View 32 v70,2013-06-13 06:46:00,
2013-06-13 02:51:00,53.0,52.2,29.42,NW,315,2.0,5.0,97,0.00,,,0.00,Weather View 32 v70,2013-06-13 06:51:00,
2013-06-13 02:56:00,53.0,52.2,29.42,NW,315,1.0,5.0,97,0.00,,,0.00,Weather View 32 v70,2013-06-13 06:56:00,
2013-06-13 03:01:00,53.0,52.2,29.42,NW,315,4.0,5.0,97,0.00,,,0.00,Weather View 32 v70,2013-06-13 07:01:00,
2013-06-13 03:06:00,53.0,52.2,29.42,NW,315,3.0,5.0,97,0.00,,,0.00,Weather View 32 v70,2013-06-13 07:06:00,
2013-06-13 03:11:00,53.0,52.2,29.42,NW,315,2.0,5.0,97,0.00,,,0.00,Weather View 32 v70,2013-06-13 07:11:00,
2013-06-13 03:16:00,53.0,52.2,29.41,NW,315,0.0,5.0,97,0.00,,,0.00,Weather View 32 v70,2013-06-13 07:16:00,
2013-06-13 03:21:00,52.0,51.2,29.41,NW,315,0.0,5.0,97,0.00,,,0.00,Weather View 32 v70,2013-06-13 07:21:00,
2013-06-13 03:26:00,52.0,51.2,29.41,NW,315,2.0,5.0,97,0.00,,,0.00,Weather View 32 v70,2013-06-13 07:26:00,
2013-06-13 03:31:00,52.0,51.2,29.41,NW,315,0.0,5.0,97,0.00,,,0.00,Weather View 32 v70,2013-06-13 07:31:00,
2013-06-13 03:36:00,52.0,51.2,29.41,NW,315,0.0,5.0,97,0.00,,,0.00,Weather View 32 v70,2013-06-13 07:36:00,
2013-06-13 03:41:00,52.0,51.2,29.41,NW,315,0.0,5.0,97,0.00,,,0.00,Weather View 32 v70,2013-06-13 07:41:00,
2013-06-13 03:46:00,52.0,51.2,29.41,NW,315,0.0,5.0,97,0.00,,,0.00,Weather View 32 v70,2013-06-13 07:46:00,
2013-06-13 03:51:00,52.0,51.2,29.41,NW,315,0.0,5.0,97,0.00,,,0.00,Weather View 32 v70,2013-06-13 07:51:00,
2013-06-13 03:56:00,51.0,50.2,29.41,NW,315,1.0,5.0,97,0.00,,,0.00,Weather View 32 v70,2013-06-13 07:56:00,
2013-06-13 04:01:00,51.0,50.2,29.41,NW,315,0.0,5.0,97,0.00,,,0.00,Weather View 32 v70,2013-06-13 08:01:00,
2013-06-13 04:06:00,51.0,50.2,29.41,NW,315,0.0,5.0,97,0.00,,,0.00,Weather View 32 v70,2013-06-13 08:06:00,
2013-06-13 04:11:00,51.0,50.2,29.41,NW,315,1.0,5.0,97,0.00,,,0.00,Weather View 32 v70,2013-06-13 08:11:00,
2013-06-13 04:16:00,52.0,51.2,29.41,NW,315,3.0,3.0,97,0.00,,,0.00,Weather View 32 v70,2013-06-13 08:16:00,
2013-06-13 04:21:00,52.0,51.2,29.41,NW,315,3.0,4.0,97,0.00,,,0.00,Weather View 32 v70,2013-06-13 08:21:00,
2013-06-13 04:26:00,52.0,51.2,29.41,NW,315,2.0,4.0,97,0.00,,,0.00,Weather View 32 v70,2013-06-13 08:26:00,
2013-06-13 04:31:00,52.0,51.2,29.41,NW,315,1.0,4.0,97,0.00,,,0.00,Weather View 32 v70,2013-06-13 08:31:00,
2013-06-13 04:36:00,52.0,51.2,29.42,NW,315,3.0,4.0,97,0.00,,,0.00,Weather View 32 v70,2013-06-13 08:36:00,
2013-06-13 04:41:00,52.0,51.2,29.42,NW,315,3.0,5.0,97,0.00,,,0.00,Weather View 32 v70,2013-06-13 08:41:00,
2013-06-13 04:46:00,52.0,51.2,29.42,NW,315,3.0,6.0,97,0.00,,,0.00,Weather View 32 v70,2013-06-13 08:46:00,
2013-06-13 04:51:00,52.0,51.2,29.42,NW,315,3.0,6.0,97,0.00,,,0.00,Weather View 32 v70,2013-06-13 08:51:00,
2013-06-13 04:56:00,52.0,51.2,29.42,NW,315,2.0,6.0,97,0.00,,,0.00,Weather View 32 v70,2013-06-13 08:56:00,
2013-06-13 05:01:00,52.0,51.2,29.42,NW,315,0.0,6.0,97,0.00,,,0.00,Weather View 32 v70,2013-06-13 09:01:00,
2013-06-13 05:06:00,51.0,50.2,29.42,NW,315,0.0,6.0,97,0.00,,,0.00,Weather View 32 v70,2013-06-13 09:06:00,
2013-06-13 05:11:00,51.0,50.2,29.42,NW,315,0.0,6.0,97,0.00,,,0.00,Weather View 32 v70,2013-06-13 09:11:00,
2013-06-13 05:16:00,51.0,50.2,29.44,NW,315,1.0,6.0,97,0.00,,,0.00,Weather View 32 v70,2013-06-13 09:16:00,
2013-06-13 05:21:00,51.0,50.2,29.44,NW,315,0.0,6.0,97,0.00,,,0.00,Weather View 32 v70,2013-06-13 09:21:00,
2013-06-13 05:26:00,51.0,50.2,29.43,NW,315,0.0,6.0,97,0.00,,,0.00,Weather View 32 v70,2013-06-13 09:26:00,
2013-06-13 05:31:00,51.0,50.2,29.43,NW,315,2.0,6.0,97,0.00,,,0.00,Weather View 32 v70,2013-06-13 09:31:00,
2013-06-13 05:36:00,51.0,50.2,29.43,NW,315,1.0,6.0,97,0.00,,,0.00,Weather View 32 v70,2013-06-13 09:36:00,
2013-06-13 05:41:00,51.0,50.2,29.43,NW,315,1.0,6.0,97,0.00,,,0.00,Weather View 32 v70,2013-06-13 09:41:00,
2013-06-13 05:46:00,51.0,50.2,29.43,NW,315,0.0,5.0,97,0.00,,,0.00,Weather View 32 v70,2013-06-13 09:46:00,
2013-06-13 05:51:00,51.0,50.2,29.43,NW,315,0.0,4.0,97,0.00,,,0.00,Weather View 32 v70,2013-06-13 09:51:00,
2013-06-13 05:56:00,51.0,50.2,29.43,NW,315,1.0,3.0,97,0.00,,,0.00,Weather View 32 v70,2013-06-13 09:56:00,
2013-06-13 06:01:00,51.0,50.2,29.43,NW,315,2.0,3.0,97,0.00,,,0.00,Weather View 32 v70,2013-06-13 10:01:00,
2013-06-13 06:06:00,51.0,50.2,29.43,NW,315,2.0,4.0,97,0.00,,,0.00,Weather View 32 v70,2013-06-13 10:06:00,
2013-06-13 06:11:00,51.0,50.2,29.43,NW,315,2.0,4.0,97,0.00,,,0.00,Weather View 32 v70,2013-06-13 10:11:00,
2013-06-13 06:16:00,52.0,51.2,29.42,NW,315,2.0,4.0,97,0.00,,,0.00,Weather View 32 v70,2013-06-13 10:16:00,
2013-06-13 06:21:00,52.0,51.2,29.42,NW,315,0.0,4.0,97,0.00,,,0.00,Weather View 32 v70,2013-06-13 10:21:00,
2013-06-13 06:26:00,52.0,51.2,29.41,NW,315,0.0,4.0,97,0.00,,,0.00,Weather View 32 v70,2013-06-13 10:26:00,
2013-06-13 06:31:00,52.0,51.2,29.41,NW,315,0.0,4.0,97,0.00,,,0.00,Weather View 32 v70,2013-06-13 10:31:00,
2013-06-13 06:36:00,52.0,51.2,29.41,NW,315,1.0,4.0,97,0.00,,,0.00,Weather View 32 v70,2013-06-13 10:36:00,
2013-06-13 06:41:00,53.0,52.2,29.41,West,270,3.0,4.0,97,0.00,,,0.00,Weather View 32 v70,2013-06-13 10:41:00,
2013-06-13 06:46:00,53.0,52.2,29.41,West,270,0.0,4.0,97,0.00,,,0.00,Weather View 32 v70,2013-06-13 10:46:00,
2013-06-13 06:51:00,54.0,53.2,29.41,West,270,2.0,4.0,97,0.00,,,0.00,Weather View 32 v70,2013-06-13 10:51:00,
2013-06-13 06:56:00,54.0,53.2,29.42,NW,315,3.0,5.0,97,0.00,,,0.00,Weather View 32 v70,2013-06-13 10:56:00,
2013-06-13 07:01:00,55.0,53.9,29.42,West,270,3.0,5.0,96,0.00,,,0.00,Weather View 32 v70,2013-06-13 11:01:00,
2013-06-13 07:06:00,55.0,53.6,29.42,West,270,3.0,6.0,95,0.00,,,0.00,Weather View 32 v70,2013-06-13 11:06:00,
2013-06-13 07:11:00,55.0,53.9,29.42,West,270,2.0,6.0,96,0.00,,,0.00,Weather View 32 v70,2013-06-13 11:11:00,
2013-06-13 07:16:00,55.0,53.9,29.42,West,270,1.0,6.0,96,0.00,,,0.00,Weather View 32 v70,2013-06-13 11:16:00,
2013-06-13 07:21:00,56.0,54.6,29.42,West,270,3.0,6.0,95,0.00,,,0.00,Weather View 32 v70,2013-06-13 11:21:00,
2013-06-13 07:26:00,56.0,54.0,29.42,WNW,292,4.0,6.0,93,0.00,,,0.00,Weather View 32 v70,2013-06-13 11:26:00,
2013-06-13 07:31:00,57.0,55.3,29.42,NW,315,4.0,7.0,94,0.00,,,0.00,Weather View 32 v70,2013-06-13 11:31:00,
2013-06-13 07:36:00,57.0,55.3,29.41,WNW,292,4.0,7.0,94,0.00,,,0.00,Weather View 32 v70,2013-06-13 11:36:00,
2013-06-13 07:41:00,58.0,55.7,29.41,West,270,4.0,7.0,92,0.00,,,0.00,Weather View 32 v70,2013-06-13 11:41:00,
2013-06-13 07:46:00,58.0,55.7,29.41,West,270,5.0,7.0,92,0.00,,,0.00,Weather View 32 v70,2013-06-13 11:46:00,
2013-06-13 07:51:00,58.0,55.7,29.41,West,270,3.0,7.0,92,0.00,,,0.00,Weather View 32 v70,2013-06-13 11:51:00,
2013-06-13 07:56:00,58.0,55.4,29.41,WNW,292,1.0,7.0,91,0.00,,,0.00,Weather View 32 v70,2013-06-13 11:56:00,
2013-06-13 08:01:00,59.0,56.4,29.41,West,270,3.0,7.0,91,0.00,,,0.00,Weather View 32 v70,2013-06-13 12:01:00,
2013-06-13 08:06:00,60.0,57.0,29.39,West,270,0.0,7.0,90,0.00,,,0.00,Weather View 32 v70,2013-06-13 12:06:00,
2013-06-13 08:11:00,60.0,56.1,29.39,West,270,2.0,7.0,87,0.00,,,0.00,Weather View 32 v70,2013-06-13 12:11:00,
2013-06-13 08:16:00,61.0,56.1,29.39,West,270,2.0,7.0,84,0.00,,,0.00,Weather View 32 v70,2013-06-13 12:16:00,
2013-06-13 08:21:00,61.0,55.1,29.39,West,270,1.0,7.0,81,0.00,,,0.00,Weather View 32 v70,2013-06-13 12:21:00,
2013-06-13 08:26:00,61.0,55.1,29.39,West,270,4.0,7.0,81,0.00,,,0.00,Weather View 32 v70,2013-06-13 12:26:00,
2013-06-13 08:31:00,62.0,55.7,29.39,WNW,292,2.0,7.0,80,0.00,,,0.00,Weather View 32 v70,2013-06-13 12:31:00,
2013-06-13 08:36:00,62.0,55.7,29.39,WNW,292,4.0,7.0,80,0.00,,,0.00,Weather View 32 v70,2013-06-13 12:36:00,
2013-06-13 08:41:00,62.0,55.4,29.39,West,270,2.0,7.0,79,0.00,,,0.00,Weather View 32 v70,2013-06-13 12:41:00,
2013-06-13 08:46:00,62.0,56.8,29.39,West,270,0.0,6.0,83,0.00,,,0.00,Weather View 32 v70,2013-06-13 12:46:00,
2013-06-13 08:51:00,63.0,57.1,29.39,West,270,0.0,6.0,81,0.00,,,0.00,Weather View 32 v70,2013-06-13 12:51:00,
2013-06-13 08:56:00,63.0,57.7,29.38,West,270,0.0,6.0,83,0.00,,,0.00,Weather View 32 v70,2013-06-13 12:56:00,
2013-06-13 09:01:00,63.0,56.0,29.38,West,270,0.0,6.0,78,0.00,,,0.00,Weather View 32 v70,2013-06-13 13:01:00,
2013-06-13 09:06:00,64.0,56.3,29.37,West,270,2.0,6.0,76,0.00,,,0.00,Weather View 32 v70,2013-06-13 13:06:00,
2013-06-13 09:11:00,64.0,58.0,29.37,West,270,2.0,6.0,81,0.00,,,0.00,Weather View 32 v70,2013-06-13 13:11:00,
2013-06-13 09:16:00,64.0,58.0,29.38,West,270,0.0,6.0,81,0.00,,,0.00,Weather View 32 v70,2013-06-13 13:16:00,
2013-06-13 09:21:00,64.0,56.6,29.38,West,270,0.0,6.0,77,0.00,,,0.00,Weather View 32 v70,2013-06-13 13:21:00,
2013-06-13 09:26:00,64.0,57.7,29.38,West,270,0.0,6.0,80,0.00,,,0.00,Weather View 32 v70,2013-06-13 13:26:00,
2013-06-13 09:31:00,64.0,58.0,29.38,West,270,0.0,6.0,81,0.00,,,0.00,Weather View 32 v70,2013-06-13 13:31:00,
2013-06-13 09:36:00,64.0,58.0,29.38,West,270,0.0,6.0,81,0.00,,,0.00,Weather View 32 v70,2013-06-13 13:36:00,
2013-06-13 09:41:00,64.0,56.3,29.38,West,270,0.0,5.0,76,0.00,,,0.00,Weather View 32 v70,2013-06-13 13:41:00,
2013-06-13 09:46:00,64.0,57.0,29.38,West,270,0.0,3.0,78,0.00,,,0.00,Weather View 32 v70,2013-06-13 13:46:00,
2013-06-13 09:51:00,64.0,55.5,29.38,SSW,202,2.0,3.0,74,0.00,,,0.00,Weather View 32 v70,2013-06-13 13:51:00,
2013-06-13 09:56:00,64.0,55.9,29.38,SSW,202,0.0,3.0,75,0.00,,,0.00,Weather View 32 v70,2013-06-13 13:56:00,
2013-06-13 10:01:00,64.0,56.6,29.38,SSW,202,0.0,3.0,77,0.00,,,0.00,Weather View 32 v70,2013-06-13 14:01:00,
2013-06-13 10:06:00,64.0,55.1,29.38,SW,225,1.0,4.0,73,0.00,,,0.00,Weather View 32 v70,2013-06-13 14:06:00,
2013-06-13 10:11:00,64.0,56.3,29.38,South,180,0.0,4.0,76,0.00,,,0.00,Weather View 32 v70,2013-06-13 14:11:00,
2013-06-13 10:16:00,64.0,56.3,29.37,South,180,1.0,4.0,76,0.00,,,0.00,Weather View 32 v70,2013-06-13 14:16:00,
2013-06-13 10:21:00,65.0,58.3,29.37,South,180,0.0,4.0,79,0.00,,,0.00,Weather View 32 v70,2013-06-13 14:21:00,
2013-06-13 10:26:00,65.0,56.5,29.37,South,180,0.0,4.0,74,0.00,,,0.00,Weather View 32 v70,2013-06-13 14:26:00,
2013-06-13 10:31:00,65.0,56.9,29.37,South,180,0.0,4.0,75,0.00,,,0.00,Weather View 32 v70,2013-06-13 14:31:00,
2013-06-13 10:36:00,65.0,56.1,29.37,SE,135,0.0,4.0,73,0.00,,,0.00,Weather View 32 v70,2013-06-13 14:36:00,
2013-06-13 10:41:00,65.0,56.5,29.37,South,180,0.0,4.0,74,0.00,,,0.00,Weather View 32 v70,2013-06-13 14:41:00,
2013-06-13 10:46:00,65.0,55.3,29.37,South,180,0.0,4.0,71,0.00,,,0.00,Weather View 32 v70,2013-06-13 14:46:00,
2013-06-13 10:51:00,65.0,56.1,29.37,SE,135,0.0,4.0,73,0.00,,,0.00,Weather View 32 v70,2013-06-13 14:51:00,
2013-06-13 10:56:00,65.0,56.1,29.37,North,360,1.0,4.0,73,0.00,,,0.00,Weather View 32 v70,2013-06-13 14:56:00,
2013-06-13 11:01:00,66.0,57.4,29.37,SE,135,0.0,4.0,74,0.00,,,0.00,Weather View 32 v70,2013-06-13 15:01:00,
2013-06-13 11:06:00,66.0,57.4,29.37,South,180,0.0,4.0,74,0.00,,,0.00,Weather View 32 v70,2013-06-13 15:06:00,
2013-06-13 11:11:00,66.0,56.7,29.37,South,180,2.0,4.0,72,0.00,,,0.00,Weather View 32 v70,2013-06-13 15:11:00,
2013-06-13 11:16:00,66.0,55.5,29.37,SE,135,3.0,4.0,69,0.00,,,0.00,Weather View 32 v70,2013-06-13 15:16:00,
2013-06-13 11:21:00,66.0,55.5,29.37,South,180,0.0,6.0,69,0.00,,,0.00,Weather View 32 v70,2013-06-13 15:21:00,
2013-06-13 11:26:00,66.0,55.1,29.37,SW,225,1.0,6.0,68,0.00,,,0.00,Weather View 32 v70,2013-06-13 15:26:00,
2013-06-13 11:31:00,66.0,57.4,29.37,WSW,247,0.0,6.0,74,0.00,,,0.00,Weather View 32 v70,2013-06-13 15:31:00,
2013-06-13 11:36:00,66.0,56.7,29.37,South,180,1.0,6.0,72,0.00,,,0.00,Weather View 32 v70,2013-06-13 15:36:00,
2013-06-13 11:41:00,66.0,58.2,29.37,East,90,2.0,6.0,76,0.00,,,0.00,Weather View 32 v70,2013-06-13 15:41:00,
2013-06-13 11:46:00,66.0,57.4,29.37,North,360,0.0,6.0,74,0.00,,,0.00,Weather View 32 v70,2013-06-13 15:46:00,
2013-06-13 11:51:00,66.0,56.3,29.37,South,180,0.0,6.0,71,0.00,,,0.00,Weather View 32 v70,2013-06-13 15:51:00,
2013-06-13 11:56:00,66.0,54.3,29.36,West,270,4.0,6.0,66,0.00,,,0.00,Weather View 32 v70,2013-06-13 15:56:00,
2013-06-13 12:01:00,66.0,53.9,29.36,West,270,6.0,6.0,65,0.00,,,0.00,Weather View 32 v70,2013-06-13 16:01:00,
2013-06-13 12:06:00,65.0,52.9,29.36,South,180,1.0,6.0,65,0.00,,,0.00,Weather View 32 v70,2013-06-13 16:06:00,
2013-06-13 12:11:00,65.0,53.7,29.36,South,180,0.0,6.0,67,0.00,,,0.00,Weather View 32 v70,2013-06-13 16:11:00,
2013-06-13 12:16:00,65.0,55.3,29.36,SW,225,0.0,6.0,71,0.00,,,0.00,Weather View 32 v70,2013-06-13 16:16:00,
2013-06-13 12:21:00,65.0,56.9,29.36,SE,135,1.0,6.0,75,0.00,,,0.00,Weather View 32 v70,2013-06-13 16:21:00,
2013-06-13 12:26:00,65.0,57.6,29.37,West,270,1.0,6.0,77,0.00,,,0.00,Weather View 32 v70,2013-06-13 16:26:00,
2013-06-13 12:31:00,64.0,57.7,29.37,South,180,1.0,6.0,80,0.00,,,0.00,Weather View 32 v70,2013-06-13 16:31:00,
2013-06-13 12:36:00,64.0,57.7,29.37,West,270,1.0,6.0,80,0.00,,,0.00,Weather View 32 v70,2013-06-13 16:36:00,
2013-06-13 12:41:00,64.0,58.4,29.37,West,270,9.0,10.0,82,0.00,,,0.00,Weather View 32 v70,2013-06-13 16:41:00,
2013-06-13 12:46:00,63.0,57.4,29.38,West,270,6.0,10.0,82,0.00,,,0.00,Weather View 32 v70,2013-06-13 16:46:00,
2013-06-13 12:51:00,62.0,56.4,29.38,West,270,6.0,10.0,82,0.00,,,0.00,Weather View 32 v70,2013-06-13 16:51:00,
2013-06-13 12:56:00,62.0,58.4,29.38,West,270,5.0,10.0,88,0.00,,,0.00,Weather View 32 v70,2013-06-13 16:56:00,
2013-06-13 13:01:00,62.0,58.4,29.38,West,270,3.0,10.0,88,0.00,,,0.00,Weather View 32 v70,2013-06-13 17:01:00,
2013-06-13 13:06:00,62.0,58.7,29.39,West,270,3.0,10.0,89,0.00,,,0.00,Weather View 32 v70,2013-06-13 17:06:00,
2013-06-13 13:11:00,62.0,57.4,29.39,West,270,6.0,10.0,85,0.00,,,0.00,Weather View 32 v70,2013-06-13 17:11:00,
2013-06-13 13:16:00,62.0,58.7,29.38,West,270,4.0,10.0,89,0.00,,,0.00,Weather View 32 v70,2013-06-13 17:16:00,
2013-06-13 13:21:00,61.0,58.3,29.38,West,270,3.0,10.0,91,0.00,,,0.00,Weather View 32 v70,2013-06-13 17:21:00,
2013-06-13 13:26:00,61.0,58.3,29.38,West,270,1.0,10.0,91,0.00,,,0.00,Weather View 32 v70,2013-06-13 17:26:00,
2013-06-13 13:31:00,61.0,58.7,29.38,West,270,2.0,10.0,92,0.00,,,0.00,Weather View 32 v70,2013-06-13 17:31:00,
2013-06-13 13:36:00,61.0,59.0,29.36,West,270,0.0,10.0,93,0.00,,,0.00,Weather View 32 v70,2013-06-13 17:36:00,
2013-06-13 13:41:00,61.0,60.1,29.36,West,270,0.0,10.0,97,0.00,,,0.00,Weather View 32 v70,2013-06-13 17:41:00,
2013-06-13 13:46:00,60.0,58.9,29.35,South,180,2.0,10.0,96,0.00,,,0.00,Weather View 32 v70,2013-06-13 17:46:00,
2013-06-13 13:51:00,60.0,59.1,29.35,SW,225,0.0,8.0,97,0.00,,,0.00,Weather View 32 v70,2013-06-13 17:51:00,
2013-06-13 13:56:00,60.0,59.4,29.35,West,270,3.0,8.0,98,0.00,,,0.00,Weather View 32 v70,2013-06-13 17:56:00,
2013-06-13 14:01:00,59.0,58.4,29.35,East,90,1.0,8.0,98,0.00,,,0.00,Weather View 32 v70,2013-06-13 18:01:00,
2013-06-13 14:06:00,59.0,58.4,29.34,West,270,0.0,8.0,98,0.00,,,0.00,Weather View 32 v70,2013-06-13 18:06:00,
2013-06-13 14:11:00,59.0,58.4,29.34,South,180,4.0,7.0,98,0.00,,,0.00,Weather View 32 v70,2013-06-13 18:11:00,
2013-06-13 14:16:00,59.0,57.6,29.34,West,270,5.0,7.0,95,0.00,,,0.00,Weather View 32 v70,2013-06-13 18:16:00,
2013-06-13 14:21:00,59.0,57.9,29.34,NW,315,6.0,7.0,96,0.00,,,0.00,Weather View 32 v70,2013-06-13 18:21:00,
2013-06-13 14:26:00,59.0,58.4,29.35,NE,45,1.0,7.0,98,0.00,,,0.00,Weather View 32 v70,2013-06-13 18:26:00,
2013-06-13 14:31:00,58.0,57.2,29.35,North,360,0.0,7.0,97,0.00,,,0.00,Weather View 32 v70,2013-06-13 18:31:00,
2013-06-13 14:36:00,58.0,57.4,29.35,WNW,292,6.0,7.0,98,0.00,,,0.00,Weather View 32 v70,2013-06-13 18:36:00,
2013-06-13 14:41:00,58.0,57.4,29.35,West,270,3.0,7.0,98,0.00,,,0.00,Weather View 32 v70,2013-06-13 18:41:00,
2013-06-13 14:46:00,58.0,57.4,29.35,SW,225,2.0,7.0,98,0.00,,,0.00,Weather View 32 v70,2013-06-13 18:46:00,
2013-06-13 14:51:00,58.0,57.4,29.35,NW,315,6.0,7.0,98,0.00,,,0.00,Weather View 32 v70,2013-06-13 18:51:00,
2013-06-13 14:56:00,58.0,57.2,29.35,South,180,3.0,7.0,97,0.00,,,0.00,Weather View 32 v70,2013-06-13 18:56:00,
2013-06-13 15:01:00,58.0,56.6,29.35,NW,315,5.0,7.0,95,0.00,,,0.00,Weather View 32 v70,2013-06-13 19:01:00,
2013-06-13 15:06:00,58.0,56.9,29.36,West,270,4.0,7.0,96,0.00,,,0.00,Weather View 32 v70,2013-06-13 19:06:00,
2013-06-13 15:11:00,58.0,57.4,29.36,SW,225,0.0,7.0,98,0.00,,,0.00,Weather View 32 v70,2013-06-13 19:11:00,
2013-06-13 15:16:00,58.0,57.4,29.35,NW,315,3.0,7.0,98,0.00,,,0.00,Weather View 32 v70,2013-06-13 19:16:00,
2013-06-13 15:21:00,58.0,57.4,29.35,South,180,0.0,7.0,98,0.00,,,0.00,Weather View 32 v70,2013-06-13 19:21:00,
2013-06-13 15:26:00,58.0,57.4,29.36,West,270,7.0,7.0,98,0.00,,,0.00,Weather View 32 v70,2013-06-13 19:26:00,
2013-06-13 15:31:00,57.0,56.4,29.36,West,270,9.0,10.0,98,0.00,,,0.00,Weather View 32 v70,2013-06-13 19:31:00,
2013-06-13 15:36:00,57.0,56.4,29.37,West,270,4.0,10.0,98,0.00,,,0.00,Weather View 32 v70,2013-06-13 19:36:00,
2013-06-13 15:41:00,56.0,55.2,29.37,West,270,4.0,10.0,97,0.00,,,0.00,Weather View 32 v70,2013-06-13 19:41:00,
2013-06-13 15:46:00,56.0,55.2,29.37,WNW,292,5.0,10.0,97,0.00,,,0.00,Weather View 32 v70,2013-06-13 19:46:00,
2013-06-13 15:51:00,56.0,55.2,29.37,South,180,1.0,10.0,97,0.00,,,0.00,Weather View 32 v70,2013-06-13 19:51:00,
2013-06-13 15:56:00,56.0,55.2,29.38,West,270,3.0,10.0,97,0.00,,,0.00,Weather View 32 v70,2013-06-13 19:56:00,
2013-06-13 16:01:00,56.0,55.2,29.38,NW,315,5.0,10.0,97,0.00,,,0.00,Weather View 32 v70,2013-06-13 20:01:00,
2013-06-13 16:06:00,56.0,55.2,29.38,West,270,7.0,10.0,97,0.00,,,0.00,Weather View 32 v70,2013-06-13 20:06:00,
2013-06-13 16:11:00,56.0,55.2,29.38,WNW,292,7.0,10.0,97,0.00,,,0.00,Weather View 32 v70,2013-06-13 20:11:00,
2013-06-13 16:16:00,55.0,54.2,29.38,NE,45,2.0,10.0,97,0.00,,,0.00,Weather View 32 v70,2013-06-13 20:16:00,
2013-06-13 16:21:00,55.0,54.2,29.38,West,270,7.0,10.0,97,0.00,,,0.00,Weather View 32 v70,2013-06-13 20:21:00,
2013-06-13 16:26:00,55.0,54.2,29.39,North,360,4.0,10.0,97,0.00,,,0.00,Weather View 32 v70,2013-06-13 20:26:00,
2013-06-13 16:31:00,55.0,54.2,29.39,SE,135,2.0,10.0,97,0.00,,,0.00,Weather View 32 v70,2013-06-13 20:31:00,
2013-06-13 16:36:00,55.0,54.2,29.38,West,270,1.0,10.0,97,0.00,,,0.00,Weather View 32 v70,2013-06-13 20:36:00,
2013-06-13 16:41:00,55.0,54.2,29.38,West,270,0.0,10.0,97,0.00,,,0.00,Weather View 32 v70,2013-06-13 20:41:00,
2013-06-13 16:46:00,55.0,54.2,29.37,NW,315,4.0,10.0,97,0.00,,,0.00,Weather View 32 v70,2013-06-13 20:46:00,
2013-06-13 16:51:00,55.0,54.2,29.37,West,270,0.0,10.0,97,0.00,,,0.00,Weather View 32 v70,2013-06-13 20:51:00,
2013-06-13 16:56:00,55.0,54.2,29.37,South,180,2.0,10.0,97,0.00,,,0.00,Weather View 32 v70,2013-06-13 20:56:00,
2013-06-13 17:01:00,55.0,54.2,29.37,South,180,1.0,10.0,97,0.00,,,0.00,Weather View 32 v70,2013-06-13 21:01:00,
2013-06-13 17:06:00,55.0,54.2,29.37,South,180,0.0,10.0,97,0.00,,,0.00,Weather View 32 v70,2013-06-13 21:06:00,
2013-06-13 17:11:00,55.0,54.2,29.37,South,180,0.0,10.0,97,0.00,,,0.00,Weather View 32 v70,2013-06-13 21:11:00,
2013-06-13 17:16:00,55.0,54.2,29.36,SSW,202,0.0,9.0,97,0.00,,,0.00,Weather View 32 v70,2013-06-13 21:16:00,
2013-06-13 17:21:00,55.0,54.2,29.36,SW,225,0.0,9.0,97,0.00,,,0.00,Weather View 32 v70,2013-06-13 21:21:00,
2013-06-13 17:26:00,55.0,54.2,29.36,SW,225,0.0,7.0,97,0.00,,,0.00,Weather View 32 v70,2013-06-13 21:26:00,
2013-06-13 17:31:00,55.0,54.2,29.36,SW,225,0.0,6.0,97,0.00,,,0.00,Weather View 32 v70,2013-06-13 21:31:00,
2013-06-13 17:36:00,55.0,54.2,29.35,SW,225,0.0,6.0,97,0.00,,,0.00,Weather View 32 v70,2013-06-13 21:36:00,
2013-06-13 17:41:00,55.0,54.2,29.35,SW,225,0.0,6.0,97,0.00,,,0.00,Weather View 32 v70,2013-06-13 21:41:00,
2013-06-13 17:46:00,55.0,54.2,29.35,SW,225,0.0,4.0,97,0.00,,,0.00,Weather View 32 v70,2013-06-13 21:46:00,
2013-06-13 17:51:00,55.0,54.2,29.35,South,180,0.0,3.0,97,0.00,,,0.00,Weather View 32 v70,2013-06-13 21:51:00,
2013-06-13 17:56:00,55.0,54.2,29.35,South,180,0.0,2.0,97,0.00,,,0.00,Weather View 32 v70,2013-06-13 21:56:00,
2013-06-13 18:02:00,55.0,54.2,29.35,South,180,1.0,2.0,97,0.00,,,0.00,Weather View 32 v70,2013-06-13 22:02:00,
2013-06-13 18:17:00,55.0,54.2,29.35,West,270,0.0,2.0,97,0.00,,,0.00,Weather View 32 v70,2013-06-13 22:17:00,
2013-06-13 18:22:00,55.0,54.2,29.35,South,180,1.0,2.0,97,0.00,,,0.00,Weather View 32 v70,2013-06-13 22:22:00,
2013-06-13 18:27:00,55.0,54.2,29.35,South,180,0.0,2.0,97,0.00,,,0.00,Weather View 32 v70,2013-06-13 22:27:00,
2013-06-13 22:13:00,52.0,51.2,29.37,South,180,0.0,0.0,97,0.00,,,0.00,Weather View 32 v70,2013-06-14 02:13:00,